TimeCST,TemperatureF,Dew PointF,Humidity,Sea Level PressureIn,VisibilityMPH,Wind Direction,Wind SpeedMPH,Gust SpeedMPH,PrecipitationIn,Events,Conditions,WindDirDegrees,DateUTC
12:15 AM,17.6,5.0,58,30.29,10.0,NNW,11.5,-,N/A,,Clear,330,2013-11-27 06:15:00
12:35 AM,17.6,5.0,58,30.29,10.0,NNW,10.4,-,N/A,,Clear,330,2013-11-27 06:35:00
12:55 AM,15.8,5.0,62,30.29,10.0,NNW,9.2,-,N/A,,Clear,330,2013-11-27 06:55:00
1:15 AM,15.8,5.0,62,30.29,10.0,NNW,9.2,-,N/A,,Clear,330,2013-11-27 07:15:00
1:35 AM,15.8,5.0,62,30.29,10.0,NNW,9.2,-,N/A,,Clear,330,2013-11-27 07:35:00
1:55 AM,15.8,5.0,62,30.30,10.0,NW,9.2,-,N/A,,Clear,320,2013-11-27 07:55:00
2:15 AM,15.8,3.2,58,30.30,10.0,NNW,8.1,-,N/A,,Clear,330,2013-11-27 08:15:00
2:35 AM,14.0,3.2,62,30.30,10.0,NW,6.9,-,N/A,,Clear,320,2013-11-27 08:35:00
2:55 AM,14.0,3.2,62,30.30,10.0,NNW,8.1,-,N/A,,Clear,330,2013-11-27 08:55:00
3:15 AM,14.0,3.2,62,30.31,10.0,NW,9.2,-,N/A,,Clear,320,2013-11-27 09:15:00
3:35 AM,14.0,3.2,62,30.31,10.0,NNW,6.9,-,N/A,,Clear,330,2013-11-27 09:35:00
3:55 AM,14.0,3.2,62,30.31,10.0,NNW,9.2,-,N/A,,Clear,330,2013-11-27 09:55:00
4:15 AM,14.0,3.2,62,30.31,10.0,NW,8.1,-,N/A,,Clear,320,2013-11-27 10:15:00
4:35 AM,12.2,3.2,67,30.32,10.0,NNW,6.9,-,N/A,,Clear,330,2013-11-27 10:35:00
4:55 AM,12.2,3.2,67,30.32,10.0,NNW,8.1,-,N/A,,Clear,330,2013-11-27 10:55:00
5:15 AM,12.2,3.2,67,30.32,10.0,NNW,8.1,-,N/A,,Clear,330,2013-11-27 11:15:00
5:35 AM,12.2,3.2,67,30.32,10.0,NNW,6.9,-,N/A,,Clear,330,2013-11-27 11:35:00
5:55 AM,12.2,3.2,67,30.33,10.0,NNW,6.9,-,N/A,,Clear,330,2013-11-27 11:55:00
6:15 AM,12.2,3.2,67,30.33,10.0,NNW,8.1,-,N/A,,Clear,340,2013-11-27 12:15:00
6:35 AM,12.2,3.2,67,30.34,10.0,NNW,9.2,-,N/A,,Clear,330,2013-11-27 12:35:00
6:55 AM,12.2,3.2,67,30.34,10.0,NNW,8.1,-,N/A,,Clear,330,2013-11-27 12:55:00
7:15 AM,12.2,3.2,67,30.34,10.0,NNW,8.1,-,N/A,,Clear,330,2013-11-27 13:15:00
7:35 AM,12.2,3.2,67,30.35,10.0,NNW,9.2,-,N/A,,Clear,330,2013-11-27 13:35:00
7:55 AM,14.0,3.2,62,30.35,10.0,NNW,9.2,-,N/A,,Clear,340,2013-11-27 13:55:00
8:15 AM,15.8,3.2,58,30.36,10.0,NNW,10.4,-,N/A,,Clear,330,2013-11-27 14:15:00
8:35 AM,15.8,3.2,58,30.36,10.0,NNW,10.4,-,N/A,,Clear,340,2013-11-27 14:35:00
8:55 AM,17.6,3.2,53,30.37,10.0,NNW,10.4,-,N/A,,Clear,340,2013-11-27 14:55:00
9:15 AM,17.6,3.2,53,30.36,10.0,NNW,10.4,-,N/A,,Clear,330,2013-11-27 15:15:00
9:35 AM,19.4,3.2,49,30.37,10.0,North,6.9,-,N/A,,Clear,350,2013-11-27 15:35:00
9:55 AM,19.4,1.4,46,30.36,10.0,NNW,8.1,-,N/A,,Clear,330,2013-11-27 15:55:00
10:15 AM,19.4,1.4,46,30.36,10.0,NNW,5.8,-,N/A,,Clear,340,2013-11-27 16:15:00
10:35 AM,21.2,1.4,42,30.36,10.0,NW,8.1,-,N/A,,Clear,310,2013-11-27 16:35:00
10:55 AM,23.0,1.4,39,30.34,10.0,NNW,3.5,-,N/A,,Clear,340,2013-11-27 16:55:00
11:15 AM,24.8,1.4,36,30.34,10.0,NW,5.8,-,N/A,,Clear,320,2013-11-27 17:15:00
11:35 AM,24.8,1.4,36,30.33,10.0,NW,5.8,-,N/A,,Clear,310,2013-11-27 17:35:00
11:55 AM,24.8,-0.4,34,30.33,10.0,WNW,6.9,-,N/A,,Clear,290,2013-11-27 17:55:00
12:15 PM,24.8,-0.4,34,30.33,10.0,NNW,4.6,-,N/A,,Clear,330,2013-11-27 18:15:00
12:35 PM,24.8,-0.4,34,30.32,10.0,NNW,3.5,-,N/A,,Clear,330,2013-11-27 18:35:00
12:55 PM,24.8,-0.4,34,30.31,10.0,West,6.9,-,N/A,,Clear,280,2013-11-27 18:55:00
1:15 PM,26.6,-0.4,31,30.31,10.0,North,4.6,-,N/A,,Clear,350,2013-11-27 19:15:00
1:35 PM,26.6,-2.2,29,30.30,10.0,WNW,3.5,-,N/A,,Clear,290,2013-11-27 19:35:00
1:55 PM,26.6,-2.2,29,30.30,10.0,WNW,3.5,-,N/A,,Clear,290,2013-11-27 19:55:00
2:15 PM,26.6,-2.2,29,30.29,10.0,West,10.4,-,N/A,,Clear,280,2013-11-27 20:15:00
2:35 PM,26.6,-0.4,31,30.29,10.0,West,6.9,-,N/A,,Clear,260,2013-11-27 20:35:00
2:55 PM,26.6,-0.4,31,30.28,10.0,WSW,6.9,-,N/A,,Clear,250,2013-11-27 20:55:00
3:15 PM,26.6,-2.2,29,30.28,10.0,NW,3.5,-,N/A,,Clear,310,2013-11-27 21:15:00
3:35 PM,26.6,-2.2,29,30.28,10.0,West,3.5,-,N/A,,Clear,260,2013-11-27 21:35:00
3:55 PM,26.6,-2.2,29,30.27,10.0,West,3.5,-,N/A,,Clear,260,2013-11-27 21:55:00
4:15 PM,24.8,-0.4,34,30.27,10.0,West,4.6,-,N/A,,Clear,270,2013-11-27 22:15:00
4:35 PM,24.8,-0.4,34,30.27,10.0,SW,3.5,-,N/A,,Clear,220,2013-11-27 22:35:00
4:55 PM,24.8,-0.4,34,30.26,10.0,SSW,3.5,-,N/A,,Clear,200,2013-11-27 22:55:00
5:15 PM,24.8,-0.4,34,30.26,10.0,Calm,Calm,-,N/A,,Clear,0,2013-11-27 23:15:00
5:35 PM,24.8,-0.4,34,30.27,10.0,SW,3.5,-,N/A,,Clear,220,2013-11-27 23:35:00
5:55 PM,23.0,1.4,39,30.26,10.0,SSW,4.6,-,N/A,,Clear,210,2013-11-27 23:55:00
6:15 PM,23.0,3.2,43,30.26,10.0,SW,4.6,-,N/A,,Clear,220,2013-11-28 00:15:00
6:35 PM,23.0,3.2,43,30.26,10.0,SW,4.6,-,N/A,,Clear,220,2013-11-28 00:35:00
6:55 PM,21.2,3.2,46,30.25,10.0,SSW,4.6,-,N/A,,Clear,210,2013-11-28 00:55:00
7:15 PM,23.0,5.0,46,30.23,10.0,South,4.6,-,N/A,,Clear,170,2013-11-28 01:15:00
7:35 PM,21.2,5.0,50,30.24,10.0,South,5.8,-,N/A,,Clear,190,2013-11-28 01:35:00
7:55 PM,21.2,5.0,50,30.23,10.0,South,4.6,-,N/A,,Clear,190,2013-11-28 01:55:00
8:15 PM,21.2,6.8,54,30.24,10.0,South,3.5,-,N/A,,Clear,170,2013-11-28 02:15:00
8:35 PM,21.2,6.8,54,30.24,10.0,South,4.6,-,N/A,,Clear,190,2013-11-28 02:35:00
8:55 PM,21.2,6.8,54,30.23,10.0,South,4.6,-,N/A,,Clear,180,2013-11-28 02:55:00
9:15 PM,21.2,6.8,54,30.22,10.0,SSE,5.8,-,N/A,,Clear,160,2013-11-28 03:15:00
9:35 PM,21.2,6.8,54,30.19,10.0,SSE,11.5,-,N/A,,Clear,160,2013-11-28 03:35:00
9:55 PM,21.2,6.8,54,30.21,10.0,South,6.9,-,N/A,,Clear,180,2013-11-28 03:55:00
10:15 PM,21.2,6.8,54,30.22,10.0,South,8.1,-,N/A,,Clear,190,2013-11-28 04:15:00
10:35 PM,21.2,6.8,54,30.23,10.0,South,4.6,-,N/A,,Clear,180,2013-11-28 04:35:00
10:55 PM,21.2,6.8,54,30.23,10.0,South,4.6,-,N/A,,Clear,170,2013-11-28 04:55:00
11:15 PM,21.2,8.6,58,30.22,10.0,SSE,4.6,-,N/A,,Clear,160,2013-11-28 05:15:00
11:35 PM,21.2,8.6,58,30.21,10.0,SSE,5.8,-,N/A,,Clear,150,2013-11-28 05:35:00
11:55 PM,21.2,8.6,58,30.21,10.0,SSE,3.5,-,N/A,,Clear,160,2013-11-28 05:55:00